This is the latest recevied weather packets stored in our database for station/object OM2RC-6. If no packets are shown the sender has not sent any weather packets the latest 10 day(s).
| Time | Temp. | Humidity | Pressure | Rain* | Wind** | Luminosity | Snow |
|---|---|---|---|---|---|---|---|
| 1777435461 | 0.56° C | 100% | 1024.5 hPa | - | - | - | - |
| 1777435160 | 0° C | 100% | 1024.5 hPa | - | - | - | - |
| 1777434859 | 0.56° C | 100% | 1024.4 hPa | - | - | - | - |
| 1777434556 | 0.56° C | 100% | 1024.3 hPa | - | - | - | - |
| 1777434255 | 0.56° C | 100% | 1024.3 hPa | - | - | - | - |
| 1777433954 | 0.56° C | 100% | 1024.2 hPa | - | - | - | - |
| 1777433653 | 0.56° C | 100% | 1024.2 hPa | - | - | - | - |
| 1777433352 | 0.56° C | 100% | 1024.1 hPa | - | - | - | - |
| 1777433051 | 0.56° C | 100% | 1024.1 hPa | - | - | - | - |
| 1777432750 | 0.56° C | 100% | 1024.1 hPa | - | - | - | - |
| 1777432449 | 0.56° C | 100% | 1024.1 hPa | - | - | - | - |
| 1777432148 | 0.56° C | 100% | 1024.1 hPa | - | - | - | - |
| 1777431847 | 0.56° C | 100% | 1024.1 hPa | - | - | - | - |
| 1777431546 | 0.56° C | 100% | 1024.1 hPa | - | - | - | - |
| 1777431245 | 0.56° C | 100% | 1024 hPa | - | - | - | - |
| 1777430944 | 1.11° C | 100% | 1024 hPa | - | - | - | - |
| 1777430643 | 1.11° C | 100% | 1023.9 hPa | - | - | - | - |
| 1777430341 | 1.11° C | 100% | 1023.9 hPa | - | - | - | - |
| 1777430041 | 1.67° C | 100% | 1023.9 hPa | - | - | - | - |
| 1777429739 | 1.67° C | 100% | 1023.8 hPa | - | - | - | - |
| 1777429439 | 1.67° C | 100% | 1023.8 hPa | - | - | - | - |
| 1777429138 | 2.22° C | 100% | 1023.8 hPa | - | - | - | - |
| 1777428837 | 1.67° C | 100% | 1023.8 hPa | - | - | - | - |
| 1777428536 | 1.67° C | 100% | 1023.9 hPa | - | - | - | - |
| 1777428235 | 2.22° C | 100% | 1023.7 hPa | - | - | - | - |
* Rain since midnight (hover to see other rain measurements)
** Current wind speed in m/s (hover to see current wind gust speed)